Time,TemperatureF,DewpointF,PressureIn,WindDirection,WindDirectionDegrees,WindSpeedMPH,WindSpeedGustMPH,Humidity,HourlyPrecipIn,Conditions,Clouds,dailyrainin,SoftwareType,DateUTC
2013-06-09 00:00:00,47.4,44.9,30.01,NNE,27,0.0,0.0,91,0.00,,,0.00,Wunderground v.1.15,2013-06-09 04:00:00,
2013-06-09 00:10:00,47.3,45.1,30.01,NNE,27,1.0,2.0,92,0.00,,,0.00,Wunderground v.1.15,2013-06-09 04:10:00,
2013-06-09 00:20:00,47.3,45.1,30.01,NNE,26,0.0,0.0,92,0.00,,,0.00,Wunderground v.1.15,2013-06-09 04:20:00,
2013-06-09 00:30:00,47.2,45.0,30.01,North,360,0.0,0.0,92,0.00,,,0.00,Wunderground v.1.15,2013-06-09 04:30:00,
2013-06-09 00:39:00,47.2,45.3,30.01,North,5,0.0,0.0,93,0.00,,,0.00,Wunderground v.1.15,2013-06-09 04:39:00,
2013-06-09 00:50:00,47.2,45.0,30.01,North,5,1.0,1.0,92,0.00,,,0.00,Wunderground v.1.15,2013-06-09 04:50:00,
2013-06-09 01:00:00,47.2,45.3,30.01,North,5,0.0,0.0,93,0.00,,,0.00,Wunderground v.1.15,2013-06-09 05:00:00,
2013-06-09 01:10:00,47.2,45.3,30.01,North,5,0.0,0.0,93,0.00,,,0.00,Wunderground v.1.15,2013-06-09 05:10:00,
2013-06-09 01:20:00,47.2,45.3,30.01,North,5,0.0,0.0,93,0.00,,,0.00,Wunderground v.1.15,2013-06-09 05:20:00,
2013-06-09 01:30:00,47.3,45.4,30.02,North,5,0.0,0.0,93,0.00,,,0.00,Wunderground v.1.15,2013-06-09 05:30:00,
2013-06-09 01:40:00,47.4,45.5,30.02,North,360,0.0,0.0,93,0.00,,,0.00,Wunderground v.1.15,2013-06-09 05:40:00,
2013-06-09 01:50:00,47.5,45.6,30.02,NW,306,1.0,1.0,93,0.00,,,0.00,Wunderground v.1.15,2013-06-09 05:50:00,
2013-06-09 02:00:00,47.5,45.6,30.02,NW,311,0.0,0.0,93,0.00,,,0.00,Wunderground v.1.15,2013-06-09 06:00:00,
2013-06-09 02:10:00,47.4,45.5,30.02,North,355,1.0,1.0,93,0.00,,,0.00,Wunderground v.1.15,2013-06-09 06:10:00,
2013-06-09 02:20:00,47.4,45.5,30.03,North,355,0.0,0.0,93,0.00,,,0.00,Wunderground v.1.15,2013-06-09 06:20:00,
2013-06-09 02:30:00,47.2,45.6,30.04,North,355,0.0,0.0,94,0.00,,,0.00,Wunderground v.1.15,2013-06-09 06:30:00,
2013-06-09 02:40:00,47.1,45.5,30.04,North,355,0.0,0.0,94,0.00,,,0.00,Wunderground v.1.15,2013-06-09 06:40:00,
2013-06-09 02:50:00,47.0,45.4,30.02,North,355,0.0,0.0,94,0.00,,,0.00,Wunderground v.1.15,2013-06-09 06:50:00,
2013-06-09 03:00:00,47.0,45.4,30.03,North,355,0.0,0.0,94,0.00,,,0.00,Wunderground v.1.15,2013-06-09 07:00:00,
2013-06-09 03:10:00,46.9,45.3,30.02,North,355,0.0,0.0,94,0.00,,,0.00,Wunderground v.1.15,2013-06-09 07:10:00,
2013-06-09 03:20:00,46.9,45.5,30.02,North,355,0.0,0.0,95,0.00,,,0.00,Wunderground v.1.15,2013-06-09 07:20:00,
2013-06-09 03:30:00,46.8,45.4,30.02,North,355,0.0,0.0,95,0.00,,,0.00,Wunderground v.1.15,2013-06-09 07:30:00,
2013-06-09 03:40:00,46.8,45.4,30.03,North,355,0.0,0.0,95,0.00,,,0.00,Wunderground v.1.15,2013-06-09 07:40:00,
2013-06-09 03:50:00,46.8,45.4,30.03,North,355,0.0,0.0,95,0.00,,,0.00,Wunderground v.1.15,2013-06-09 07:50:00,
2013-06-09 04:00:00,46.8,45.4,30.02,North,355,0.0,0.0,95,0.00,,,0.00,Wunderground v.1.15,2013-06-09 08:00:00,
2013-06-09 04:10:00,46.8,45.4,30.02,North,355,0.0,0.0,95,0.00,,,0.00,Wunderground v.1.15,2013-06-09 08:10:00,
2013-06-09 04:20:00,46.7,45.3,30.03,North,355,0.0,0.0,95,0.00,,,0.00,Wunderground v.1.15,2013-06-09 08:20:00,
2013-06-09 04:30:00,46.7,45.3,30.04,North,355,0.0,0.0,95,0.00,,,0.00,Wunderground v.1.15,2013-06-09 08:30:00,
2013-06-09 04:39:00,46.7,45.3,30.04,North,355,0.0,0.0,95,0.00,,,0.00,Wunderground v.1.15,2013-06-09 08:39:00,
2013-06-09 04:50:00,46.7,45.3,30.05,North,355,0.0,0.0,95,0.00,,,0.00,Wunderground v.1.15,2013-06-09 08:50:00,
2013-06-09 05:00:00,46.8,45.4,30.05,North,355,0.0,0.0,95,0.00,,,0.00,Wunderground v.1.15,2013-06-09 09:00:00,
2013-06-09 05:09:00,46.8,45.4,30.05,North,355,0.0,0.0,95,0.00,,,0.00,Wunderground v.1.15,2013-06-09 09:09:00,
2013-06-09 05:20:00,46.8,45.4,30.05,North,355,0.0,0.0,95,0.00,,,0.00,Wunderground v.1.15,2013-06-09 09:20:00,
2013-06-09 05:30:00,46.9,45.5,30.05,North,355,0.0,0.0,95,0.00,,,0.00,Wunderground v.1.15,2013-06-09 09:30:00,
2013-06-09 05:40:00,47.0,45.6,30.05,North,355,0.0,0.0,95,0.00,,,0.00,Wunderground v.1.15,2013-06-09 09:40:00,
2013-06-09 05:50:00,47.2,45.8,30.05,North,355,0.0,0.0,95,0.00,,,0.00,Wunderground v.1.15,2013-06-09 09:50:00,
2013-06-09 06:00:00,47.3,45.9,30.06,North,355,0.0,0.0,95,0.00,,,0.00,Wunderground v.1.15,2013-06-09 10:00:00,
2013-06-09 06:10:00,47.3,45.9,30.05,North,355,0.0,1.0,95,0.00,,,0.00,Wunderground v.1.15,2013-06-09 10:10:00,
2013-06-09 06:20:00,47.4,45.8,30.05,North,355,0.0,0.0,94,0.00,,,0.00,Wunderground v.1.15,2013-06-09 10:20:00,
2013-06-09 06:30:00,47.4,45.8,30.05,North,355,0.0,0.0,94,0.00,,,0.01,Wunderground v.1.15,2013-06-09 10:30:00,
2013-06-09 06:40:00,47.3,45.7,30.05,North,355,0.0,0.0,94,0.00,,,0.01,Wunderground v.1.15,2013-06-09 10:40:00,
2013-06-09 06:49:00,47.4,46.0,30.05,North,355,0.0,0.0,95,0.00,,,0.01,Wunderground v.1.15,2013-06-09 10:49:00,
2013-06-09 07:00:00,47.3,45.9,30.05,North,355,0.0,0.0,95,0.00,,,0.01,Wunderground v.1.15,2013-06-09 11:00:00,
2013-06-09 07:10:00,47.4,46.0,30.05,NNE,22,0.0,0.0,95,0.00,,,0.02,Wunderground v.1.15,2013-06-09 11:10:00,
2013-06-09 07:20:00,47.5,46.1,30.05,ENE,67,1.0,1.0,95,0.04,,,0.03,Wunderground v.1.15,2013-06-09 11:20:00,
2013-06-09 07:30:00,47.7,46.3,30.06,ENE,76,0.0,1.0,95,0.04,,,0.03,Wunderground v.1.15,2013-06-09 11:30:00,
2013-06-09 07:40:00,47.6,46.2,30.06,ENE,75,0.0,0.0,95,0.00,,,0.03,Wunderground v.1.15,2013-06-09 11:40:00,
2013-06-09 07:50:00,47.6,46.2,30.07,ENE,75,0.0,0.0,95,0.00,,,0.03,Wunderground v.1.15,2013-06-09 11:50:00,
2013-06-09 08:00:00,47.7,46.3,30.06,ENE,74,0.0,1.0,95,0.00,,,0.03,Wunderground v.1.15,2013-06-09 12:00:00,
2013-06-09 08:10:00,48.0,46.6,30.07,NNW,333,0.0,0.0,95,0.00,,,0.03,Wunderground v.1.15,2013-06-09 12:10:00,
2013-06-09 08:20:00,48.2,46.8,30.07,NE,49,0.0,0.0,95,0.00,,,0.03,Wunderground v.1.15,2013-06-09 12:20:00,
2013-06-09 08:30:00,48.2,46.8,30.07,ENE,72,0.0,0.0,95,0.00,,,0.03,Wunderground v.1.15,2013-06-09 12:30:00,
2013-06-09 08:40:00,48.3,46.9,30.07,East,90,1.0,1.0,95,0.00,,,0.03,Wunderground v.1.15,2013-06-09 12:40:00,
2013-06-09 08:50:00,48.6,47.2,30.07,East,87,0.0,0.0,95,0.00,,,0.03,Wunderground v.1.15,2013-06-09 12:50:00,
2013-06-09 09:00:00,48.7,47.3,30.07,East,87,0.0,0.0,95,0.00,,,0.03,Wunderground v.1.15,2013-06-09 13:00:00,
2013-06-09 09:10:00,48.8,47.4,30.07,East,79,0.0,2.0,95,0.00,,,0.03,Wunderground v.1.15,2013-06-09 13:10:00,
2013-06-09 09:19:00,49.1,47.7,30.07,NE,53,1.0,1.0,95,0.00,,,0.03,Wunderground v.1.15,2013-06-09 13:19:00,
2013-06-09 09:30:00,49.2,47.5,30.07,NE,53,0.0,0.0,94,0.00,,,0.03,Wunderground v.1.15,2013-06-09 13:30:00,
2013-06-09 09:40:00,49.2,47.5,30.07,NE,53,0.0,0.0,94,0.00,,,0.03,Wunderground v.1.15,2013-06-09 13:40:00,
2013-06-09 09:49:00,49.1,47.4,30.07,NE,53,0.0,0.0,94,0.00,,,0.03,Wunderground v.1.15,2013-06-09 13:49:00,
2013-06-09 10:00:00,49.3,47.6,30.07,NE,53,0.0,0.0,94,0.00,,,0.03,Wunderground v.1.15,2013-06-09 14:00:00,
2013-06-09 10:10:00,49.4,47.7,30.08,ENE,57,0.0,0.0,94,0.00,,,0.03,Wunderground v.1.15,2013-06-09 14:10:00,
2013-06-09 10:20:00,49.6,47.7,30.07,ENE,57,0.0,0.0,93,0.00,,,0.03,Wunderground v.1.15,2013-06-09 14:20:00,
2013-06-09 10:30:00,49.5,47.6,30.07,ENE,57,0.0,0.0,93,0.00,,,0.03,Wunderground v.1.15,2013-06-09 14:30:00,
2013-06-09 10:40:00,49.6,47.9,30.08,ENE,57,0.0,0.0,94,0.00,,,0.04,Wunderground v.1.15,2013-06-09 14:40:00,
2013-06-09 10:50:00,49.6,47.7,30.07,ENE,57,0.0,0.0,93,0.00,,,0.04,Wunderground v.1.15,2013-06-09 14:50:00,
2013-06-09 11:00:00,50.1,48.2,30.08,ENE,57,0.0,0.0,93,0.00,,,0.04,Wunderground v.1.15,2013-06-09 15:00:00,
2013-06-09 11:10:00,50.4,48.5,30.08,ENE,57,0.0,0.0,93,0.00,,,0.04,Wunderground v.1.15,2013-06-09 15:10:00,
2013-06-09 11:19:00,50.7,48.7,30.07,ENE,57,0.0,0.0,93,0.00,,,0.04,Wunderground v.1.15,2013-06-09 15:19:00,
2013-06-09 11:30:00,51.4,49.2,30.07,ENE,64,0.0,0.0,92,0.00,,,0.04,Wunderground v.1.15,2013-06-09 15:30:00,
2013-06-09 11:40:00,51.9,49.6,30.06,East,80,1.0,2.0,92,0.00,,,0.04,Wunderground v.1.15,2013-06-09 15:40:00,
2013-06-09 11:50:00,52.0,49.2,30.06,NE,48,1.0,1.0,90,0.00,,,0.04,Wunderground v.1.15,2013-06-09 15:50:00,
2013-06-09 12:00:00,51.9,49.9,30.06,ENE,63,0.0,0.0,93,0.00,,,0.04,Wunderground v.1.15,2013-06-09 16:00:00,
2013-06-09 12:10:00,52.3,50.0,30.06,East,86,0.0,0.0,92,0.00,,,0.04,Wunderground v.1.15,2013-06-09 16:10:00,
2013-06-09 12:20:00,52.7,49.8,30.06,SE,143,0.0,0.0,90,0.00,,,0.04,Wunderground v.1.15,2013-06-09 16:20:00,
2013-06-09 12:30:00,52.9,49.4,30.06,SE,142,0.0,0.0,88,0.00,,,0.04,Wunderground v.1.15,2013-06-09 16:30:00,
2013-06-09 12:40:00,53.1,49.3,30.06,SE,143,0.0,0.0,87,0.00,,,0.04,Wunderground v.1.15,2013-06-09 16:40:00,
2013-06-09 12:50:00,53.3,48.9,30.06,SW,216,0.0,0.0,85,0.00,,,0.04,Wunderground v.1.15,2013-06-09 16:50:00,
2013-06-09 13:00:00,53.2,48.8,30.07,SW,215,0.0,0.0,85,0.00,,,0.04,Wunderground v.1.15,2013-06-09 17:00:00,
2013-06-09 13:10:00,53.1,49.0,30.07,SW,227,1.0,1.0,86,0.00,,,0.04,Wunderground v.1.15,2013-06-09 17:10:00,
2013-06-09 13:20:00,53.0,48.9,30.07,SW,223,1.0,4.0,86,0.00,,,0.04,Wunderground v.1.15,2013-06-09 17:20:00,
2013-06-09 13:30:00,52.5,50.2,30.06,SW,219,1.0,1.0,92,0.00,,,0.04,Wunderground v.1.15,2013-06-09 17:30:00,
2013-06-09 13:40:00,52.3,49.2,30.06,SW,220,0.0,0.0,89,0.00,,,0.04,Wunderground v.1.15,2013-06-09 17:40:00,
2013-06-09 13:50:00,52.4,49.6,30.06,SW,219,0.0,1.0,90,0.00,,,0.04,Wunderground v.1.15,2013-06-09 17:50:00,
2013-06-09 14:00:00,52.6,49.8,30.06,WSW,254,1.0,1.0,90,0.00,,,0.04,Wunderground v.1.15,2013-06-09 18:00:00,
2013-06-09 14:10:00,52.9,50.0,30.06,WSW,237,1.0,3.0,90,0.00,,,0.04,Wunderground v.1.15,2013-06-09 18:10:00,
2013-06-09 14:20:00,52.9,50.3,30.06,SW,227,1.0,1.0,91,0.00,,,0.04,Wunderground v.1.15,2013-06-09 18:20:00,
2013-06-09 14:30:00,52.9,50.3,30.06,SW,228,0.0,0.0,91,0.00,,,0.04,Wunderground v.1.15,2013-06-09 18:30:00,
2013-06-09 14:40:00,53.2,50.0,30.06,SW,227,0.0,0.0,89,0.00,,,0.04,Wunderground v.1.15,2013-06-09 18:40:00,
2013-06-09 14:50:00,53.7,50.2,30.06,SW,227,0.0,0.0,88,0.00,,,0.04,Wunderground v.1.15,2013-06-09 18:50:00,
2013-06-09 15:00:00,53.6,50.1,30.06,West,273,0.0,0.0,88,0.00,,,0.04,Wunderground v.1.15,2013-06-09 19:00:00,
2013-06-09 15:10:00,53.8,50.6,30.06,NW,317,0.0,0.0,89,0.00,,,0.04,Wunderground v.1.15,2013-06-09 19:10:00,
2013-06-09 15:20:00,54.2,50.1,30.06,NW,317,0.0,0.0,86,0.00,,,0.04,Wunderground v.1.15,2013-06-09 19:20:00,
2013-06-09 15:30:00,54.4,50.3,30.06,NW,324,1.0,1.0,86,0.00,,,0.04,Wunderground v.1.15,2013-06-09 19:30:00,
2013-06-09 15:40:00,54.5,50.1,30.06,NNW,331,1.0,1.0,85,0.00,,,0.04,Wunderground v.1.15,2013-06-09 19:40:00,
2013-06-09 15:50:00,54.7,50.0,30.06,WNW,303,1.0,1.0,84,0.00,,,0.04,Wunderground v.1.15,2013-06-09 19:50:00,
2013-06-09 16:00:00,54.8,50.4,30.06,NW,318,2.0,2.0,85,0.00,,,0.04,Wunderground v.1.15,2013-06-09 20:00:00,
2013-06-09 16:10:00,54.9,50.8,30.06,NW,318,2.0,3.0,86,0.00,,,0.04,Wunderground v.1.15,2013-06-09 20:10:00,
2013-06-09 16:20:00,55.8,51.4,30.05,NW,324,2.0,2.0,85,0.00,,,0.04,Wunderground v.1.15,2013-06-09 20:20:00,
2013-06-09 16:30:00,56.3,50.5,30.06,WNW,290,2.0,5.0,81,0.00,,,0.04,Wunderground v.1.15,2013-06-09 20:30:00,
2013-06-09 16:40:00,56.8,51.0,30.06,WNW,303,2.0,2.0,81,0.00,,,0.04,Wunderground v.1.15,2013-06-09 20:40:00,
2013-06-09 16:50:00,56.4,50.6,30.06,WNW,291,2.0,2.0,81,0.00,,,0.04,Wunderground v.1.15,2013-06-09 20:50:00,
2013-06-09 17:00:00,55.7,50.9,30.06,North,5,5.0,5.0,84,0.00,,,0.04,Wunderground v.1.15,2013-06-09 21:00:00,
2013-06-09 17:10:00,55.1,51.0,30.06,North,360,2.0,2.0,86,0.00,,,0.04,Wunderground v.1.15,2013-06-09 21:10:00,
2013-06-09 17:20:00,55.2,51.4,30.06,North,355,1.0,1.0,87,0.00,,,0.04,Wunderground v.1.15,2013-06-09 21:20:00,
2013-06-09 17:30:00,55.2,51.1,30.06,North,355,0.0,0.0,86,0.00,,,0.04,Wunderground v.1.15,2013-06-09 21:30:00,
2013-06-09 17:40:00,55.4,51.3,30.06,NNW,345,0.0,2.0,86,0.00,,,0.04,Wunderground v.1.15,2013-06-09 21:40:00,
2013-06-09 17:50:00,55.3,50.9,30.06,NNW,344,3.0,6.0,85,0.00,,,0.04,Wunderground v.1.15,2013-06-09 21:50:00,
2013-06-09 18:00:00,54.0,50.5,30.06,NNW,338,5.0,5.0,88,0.00,,,0.04,Wunderground v.1.15,2013-06-09 22:00:00,
2013-06-09 18:10:00,53.4,50.5,30.07,NNW,338,1.0,1.0,90,0.00,,,0.04,Wunderground v.1.15,2013-06-09 22:10:00,
2013-06-09 18:20:00,53.3,50.7,30.07,NNW,331,0.0,0.0,91,0.00,,,0.04,Wunderground v.1.15,2013-06-09 22:20:00,
2013-06-09 18:30:00,53.8,50.9,30.07,NNW,331,0.0,0.0,90,0.00,,,0.04,Wunderground v.1.15,2013-06-09 22:30:00,
2013-06-09 18:40:00,54.0,50.8,30.07,WNW,288,0.0,0.0,89,0.00,,,0.04,Wunderground v.1.15,2013-06-09 22:40:00,
2013-06-09 18:50:00,53.9,50.7,30.08,WNW,298,3.0,3.0,89,0.00,,,0.04,Wunderground v.1.15,2013-06-09 22:50:00,
2013-06-09 19:00:00,53.7,50.5,30.08,WNW,295,2.0,2.0,89,0.00,,,0.04,Wunderground v.1.15,2013-06-09 23:00:00,
2013-06-09 19:10:00,53.7,50.5,30.08,NW,305,1.0,1.0,89,0.00,,,0.04,Wunderground v.1.15,2013-06-09 23:10:00,
2013-06-09 19:20:00,53.7,50.2,30.08,WNW,296,1.0,1.0,88,0.00,,,0.04,Wunderground v.1.15,2013-06-09 23:20:00,
2013-06-09 19:30:00,53.5,50.0,30.09,NW,313,1.0,1.0,88,0.00,,,0.04,Wunderground v.1.15,2013-06-09 23:30:00,
2013-06-09 19:40:00,53.3,49.8,30.09,WNW,290,1.0,1.0,88,0.00,,,0.04,Wunderground v.1.15,2013-06-09 23:40:00,
2013-06-09 19:50:00,53.2,50.0,30.09,WNW,288,1.0,4.0,89,0.00,,,0.04,Wunderground v.1.15,2013-06-09 23:50:00,
2013-06-09 20:00:00,53.2,49.7,30.09,NW,309,1.0,1.0,88,0.00,,,0.04,Wunderground v.1.15,2013-06-10 00:00:00,
2013-06-09 20:10:00,53.1,49.6,30.10,NW,308,1.0,1.0,88,0.00,,,0.04,Wunderground v.1.15,2013-06-10 00:10:00,
2013-06-09 20:20:00,53.0,49.5,30.10,WNW,288,1.0,5.0,88,0.00,,,0.04,Wunderground v.1.15,2013-06-10 00:20:00,
2013-06-09 20:30:00,53.0,49.5,30.10,NW,315,2.0,2.0,88,0.00,,,0.04,Wunderground v.1.15,2013-06-10 00:30:00,
2013-06-09 20:40:00,52.9,49.4,30.11,NW,310,3.0,3.0,88,0.00,,,0.04,Wunderground v.1.15,2013-06-10 00:40:00,
2013-06-09 20:50:00,52.7,49.2,30.11,NW,310,0.0,0.0,88,0.00,,,0.04,Wunderground v.1.15,2013-06-10 00:50:00,
2013-06-09 21:00:00,52.6,49.1,30.11,NW,310,0.0,0.0,88,0.00,,,0.04,Wunderground v.1.15,2013-06-10 01:00:00,
2013-06-09 21:10:00,52.5,49.0,30.11,NW,310,0.0,0.0,88,0.00,,,0.04,Wunderground v.1.15,2013-06-10 01:10:00,
2013-06-09 21:20:00,52.4,48.9,30.12,NW,310,0.0,0.0,88,0.00,,,0.04,Wunderground v.1.15,2013-06-10 01:20:00,
2013-06-09 21:30:00,52.2,48.8,30.13,NW,310,0.0,0.0,88,0.00,,,0.04,Wunderground v.1.15,2013-06-10 01:30:00,
2013-06-09 21:40:00,52.0,48.6,30.13,West,273,0.0,2.0,88,0.00,,,0.04,Wunderground v.1.15,2013-06-10 01:40:00,
2013-06-09 21:50:00,51.8,48.4,30.13,West,276,1.0,1.0,88,0.00,,,0.04,Wunderground v.1.15,2013-06-10 01:50:00,
2013-06-09 22:00:00,51.3,47.9,30.14,WNW,285,0.0,3.0,88,0.00,,,0.04,Wunderground v.1.15,2013-06-10 02:00:00,
2013-06-09 22:10:00,50.8,47.7,30.14,West,281,1.0,1.0,89,0.00,,,0.04,Wunderground v.1.15,2013-06-10 02:10:00,
2013-06-09 22:20:00,50.5,48.0,30.14,West,275,1.0,2.0,91,0.00,,,0.04,Wunderground v.1.15,2013-06-10 02:20:00,
2013-06-09 22:30:00,50.2,47.4,30.14,WNW,284,2.0,2.0,90,0.00,,,0.04,Wunderground v.1.15,2013-06-10 02:30:00,
2013-06-09 22:40:00,49.8,47.0,30.14,WNW,288,0.0,0.0,90,0.00,,,0.04,Wunderground v.1.15,2013-06-10 02:40:00,
2013-06-09 22:50:00,49.4,46.6,30.14,WNW,295,1.0,2.0,90,0.00,,,0.04,Wunderground v.1.15,2013-06-10 02:50:00,
2013-06-09 23:00:00,49.1,46.3,30.14,WNW,292,2.0,2.0,90,0.00,,,0.04,Wunderground v.1.15,2013-06-10 03:00:00,
2013-06-09 23:10:00,48.8,46.0,30.14,WNW,298,3.0,7.0,90,0.00,,,0.04,Wunderground v.1.15,2013-06-10 03:10:00,
2013-06-09 23:20:00,48.3,45.8,30.15,NW,306,4.0,4.0,91,0.00,,,0.04,Wunderground v.1.15,2013-06-10 03:20:00,
2013-06-09 23:30:00,47.9,45.4,30.15,WNW,286,2.0,4.0,91,0.00,,,0.04,Wunderground v.1.15,2013-06-10 03:30:00,
2013-06-09 23:40:00,47.9,45.4,30.15,WNW,298,2.0,2.0,91,0.00,,,0.04,Wunderground v.1.15,2013-06-10 03:40:00,
2013-06-09 23:50:00,47.2,44.7,30.15,WNW,298,0.0,0.0,91,0.00,,,0.04,Wunderground v.1.15,2013-06-10 03:50:00,